Theta_e
326 320 316 314 315 316 307 303 295 295 299 294 294 295 296 302 304 307 307 310 311 317 325 326 325 327 320 322 326 328 330 319 321 309 305 326 341 342 343 344 345 345 345 345 346 347 347 351 352 352 352 351 351 351 352 352 352 352 352 352 353 353 353 353 354 353 354 354 353 353 353 353 353 353 352 352 352 351 350 352 351 350 351 350 349 350 349 349 348 347 346 344 343 342 343 342 342
321 319 313 314 311 305 300 304 295 292 291 291 295 297 298 301 303 307 308 311 314 322 327 330 332 333 333 332 331 331 330 332 332 329 332 338 341 341 343 343 344 343 344 344 346 346 347 349 352 352 351 351 351 351 351 351 352 352 353 353 353 354 353 353 354 353 353 353 353 353 353 353 353 352 353 352 351 351 351 350 349 351 351 350 349 350 349 348 348 348 347 347 344 343 343 343 343
321 316 313 313 305 305 304 300 294 291 291 288 294 297 302 299 301 306 310 318 324 328 330 330 331 331 329 328 322 324 318 335 333 334 333 338 333 336 343 344 344 344 344 344 345 345 346 348 350 351 350 350 350 351 351 351 352 351 352 353 353 353 353 354 353 353 353 353 353 352 352 352 352 352 352 352 351 351 350 350 350 350 350 351 350 349 349 349 348 347 347 346 345 344 343 344 343
316 316 311 307 302 300 295 295 293 293 293 291 293 299 299 299 300 302 306 319 326 327 326 324 323 328 327 324 326 333 330 331 335 333 331 334 334 340 343 344 345 344 344 344 345 345 345 348 351 351 350 350 350 350 351 351 352 352 353 353 353 353 354 353 353 353 353 353 352 352 352 352 352 352 352 352 351 351 351 350 350 350 350 350 350 350 348 347 347 347 346 346 346 345 344 343 343
309 312 314 307 302 299 298 297 293 291 291 291 293 299 301 301 302 305 311 314 318 321 324 325 323 329 330 329 331 324 325 336 336 338 336 337 341 342 342 343 342 342 342 343 344 344 345 350 351 351 350 350 350 350 351 352 352 353 353 353 353 353 353 353 353 353 353 353 352 352 352 351 351 351 351 351 351 350 350 350 350 350 350 349 348 347 346 345 346 346 346 346 345 345 344 344 343
310 307 313 308 303 303 297 293 291 291 294 295 294 298 302 303 304 305 306 307 313 321 327 324 323 323 325 327 329 326 336 329 337 336 336 336 340 342 342 343 342 341 342 343 343 343 345 349 350 351 351 350 350 351 351 352 353 353 353 353 354 353 353 353 353 353 352 352 352 351 351 351 351 351 350 350 349 349 349 348 348 348 348 347 346 346 346 346 346 347 347 346 346 346 345 344 342
308 305 303 303 302 301 292 290 289 291 296 297 296 300 303 304 305 304 303 307 323 326 328 326 329 327 322 330 333 336 342 342 337 336 339 338 341 343 343 342 341 341 342 343 343 344 347 350 351 350 351 350 351 352 352 353 353 353 353 353 353 353 353 353 353 352 352 352 351 351 350 349 348 348 348 348 348 348 348 348 347 347 346 346 346 347 346 346 346 347 347 346 346 346 345 344 344
312 304 302 296 295 296 293 290 291 291 294 297 301 302 304 305 306 304 303 303 310 321 325 328 327 325 323 333 323 339 343 343 340 340 339 339 342 342 342 342 340 340 341 342 343 345 349 350 351 351 351 351 352 352 353 353 353 353 353 353 353 353 353 353 352 352 351 351 350 349 348 348 348 348 347 346 346 345 345 345 345 346 345 344 344 346 345 344 346 347 347 346 346 346 346 345 345
308 305 303 297 295 295 291 291 291 294 296 299 301 305 313 308 308 306 304 304 310 323 324 325 328 320 323 329 327 336 339 340 340 341 339 341 340 341 341 341 339 339 341 343 344 345 348 351 351 351 351 352 353 353 353 353 353 353 353 353 353 352 352 352 351 351 351 349 348 347 347 347 346 346 346 345 345 344 343 343 342 342 342 343 344 344 344 344 346 345 346 346 346 346 346 347 347
307 304 296 295 291 293 289 289 292 293 296 299 300 302 304 306 305 305 303 303 308 323 324 329 329 322 329 326 330 334 335 339 339 338 340 340 340 340 340 340 340 340 341 343 346 347 347 352 352 352 352 353 353 353 353 353 353 353 353 353 352 352 352 351 351 350 350 349 348 347 346 345 345 343 343 342 341 342 342 342 341 342 342 342 343 344 344 345 345 345 345 346 346 346 346 345 346
301 302 299 296 293 289 290 289 291 295 297 300 301 304 305 306 304 304 304 304 317 323 329 331 327 327 329 327 327 339 341 340 338 336 339 340 340 339 338 340 341 342 342 344 345 348 349 348 353 353 353 353 352 353 353 353 353 353 352 352 352 352 351 350 350 350 349 349 347 347 346 346 345 345 344 342 341 340 340 340 341 341 341 341 342 343 344 344 344 344 345 345 346 346 345 346 347
299 299 300 290 290 290 289 290 293 295 297 298 300 304 306 305 303 302 302 301 321 326 326 329 325 332 326 327 329 337 339 339 338 339 340 340 339 339 339 341 342 343 344 344 347 347 349 350 351 354 353 352 352 353 353 353 352 352 352 352 351 351 350 350 350 350 349 348 347 346 346 346 346 345 344 344 343 342 341 340 340 340 340 340 342 342 342 342 342 343 345 345 346 346 347 348 347
298 295 292 290 287 290 291 291 292 296 296 298 300 304 305 303 303 303 304 300 323 324 323 331 333 332 321 326 334 338 337 339 340 340 340 339 339 339 340 341 343 343 344 346 345 346 347 348 350 351 352 353 352 353 352 352 352 351 351 351 350 350 350 350 349 349 349 348 347 346 346 346 345 344 344 343 343 343 343 341 340 340 339 340 340 341 341 341 341 343 342 343 345 344 346 345 346
300 296 294 291 291 291 291 290 291 292 292 298 302 304 304 303 303 303 301 303 308 318 325 335 333 332 327 330 332 333 336 340 340 340 340 339 339 338 339 340 341 342 343 344 344 345 346 347 348 349 349 349 349 351 352 351 351 351 351 350 350 350 349 349 349 349 348 348 347 347 346 345 345 344 344 344 344 343 342 341 340 340 341 341 341 340 341 341 341 340 342 342 342 344 345 345 346
300 297 295 292 290 291 291 291 292 292 292 297 302 303 303 306 304 302 303 313 321 332 335 338 335 328 322 327 327 332 337 338 340 340 339 338 338 337 338 339 339 340 341 342 343 344 346 347 347 347 348 348 348 348 348 350 351 350 350 350 350 350 350 349 349 349 348 348 347 346 346 346 345 344 345 345 345 345 344 344 342 341 340 340 341 341 340 341 341 341 342 341 342 342 343 345 346
302 298 295 292 288 290 290 292 293 292 294 298 303 303 302 305 305 305 306 320 327 334 335 327 336 325 330 330 332 337 339 339 340 339 338 337 337 337 337 337 337 338 339 339 340 343 346 346 345 346 346 347 347 348 348 348 350 350 350 350 350 350 349 349 349 349 349 348 348 347 347 345 345 342 345 343 345 345 344 342 343 342 340 340 339 340 341 341 340 341 342 342 342 342 343 344 344
303 301 292 289 288 290 290 292 293 289 295 300 302 302 301 302 305 311 327 333 329 329 330 332 328 337 332 333 337 340 339 340 340 338 336 335 335 334 335 335 335 336 337 337 338 341 343 342 342 342 344 344 346 347 346 346 348 349 349 350 350 350 349 349 349 349 349 349 347 347 346 340 339 339 339 339 345 341 344 343 344 344 342 341 341 340 341 341 342 342 343 344 344 344 343 342 343
301 294 291 289 289 291 293 296 296 296 297 300 301 303 301 301 303 307 327 330 332 332 332 334 336 335 336 337 340 339 340 338 337 335 334 333 334 333 332 333 334 333 335 336 338 340 340 340 340 340 341 342 344 346 347 347 347 347 343 344 344 346 349 349 346 342 350 341 348 345 340 341 338 336 336 346 341 341 341 343 343 344 343 343 342 342 341 341 342 341 342 343 343 343 343 337 336
298 291 292 292 291 295 297 298 299 298 297 300 302 302 303 302 303 309 310 322 328 328 330 331 330 332 335 336 337 338 338 337 336 335 333 332 333 332 332 333 334 335 335 336 337 339 339 339 339 340 342 343 343 345 346 346 345 343 342 343 345 348 348 347 341 346 341 341 343 342 343 340 339 337 339 344 342 344 342 343 343 344 344 344 344 345 345 345 344 344 345 344 344 343 336 330 331
301 294 291 292 295 297 299 299 299 300 300 299 301 301 301 302 304 308 306 321 327 325 325 327 327 327 331 333 332 331 333 336 337 336 335 335 335 334 333 333 334 335 336 337 337 339 339 338 338 340 341 342 343 343 344 343 342 342 342 343 343 342 339 344 340 340 340 339 342 339 341 340 342 338 346 349 350 342 340 345 345 344 344 345 344 344 345 344 344 344 345 345 343 338 330 328 328
298 296 292 293 296 296 298 300 301 301 301 300 299 300 301 303 304 303 301 318 318 326 329 328 327 328 327 326 326 329 328 328 330 333 333 332 333 334 335 335 336 337 339 340 339 338 340 339 338 339 341 341 342 342 342 341 340 341 341 342 342 339 340 339 340 340 339 339 338 340 340 342 339 337 338 340 339 339 337 336 337 337 338 337 345 338 337 338 338 336 336 336 332 331 329 327 326
299 298 299 295 297 297 300 300 301 301 302 299 298 298 301 303 324 326 312 299 296 326 331 332 332 331 326 325 327 328 326 326 329 330 330 330 330 330 330 330 332 333 335 336 338 341 342 340 339 339 339 340 340 341 341 342 342 340 340 341 340 340 341 340 341 341 340 340 338 342 343 338 337 337 336 337 339 336 336 336 336 335 335 339 340 338 336 336 336 336 337 336 333 330 327 325 324
296 297 297 298 298 297 300 302 302 302 300 298 298 300 302 324 326 330 330 326 324 335 335 334 334 331 328 329 327 326 326 326 327 328 329 329 330 330 330 330 330 331 334 335 338 340 341 340 338 338 337 337 338 339 340 341 339 339 340 340 340 339 339 339 339 338 338 340 342 343 336 335 334 334 334 336 334 335 335 335 336 338 338 336 341 338 335 336 337 337 335 335 335 333 331 328 326
299 296 297 298 301 299 300 300 301 299 298 298 300 303 299 314 321 330 329 333 334 336 336 332 329 330 330 326 326 325 326 327 326 327 331 330 329 329 330 329 332 333 334 335 338 338 340 340 339 338 336 335 335 337 337 338 337 337 338 343 342 340 340 338 337 337 343 343 343 343 342 335 334 333 334 334 334 333 334 334 334 337 338 337 339 340 339 336 337 337 337 337 337 336 332 330 332
297 297 299 298 299 301 302 302 302 300 298 299 301 299 307 323 325 326 326 332 334 334 334 332 330 329 327 326 325 325 326 327 327 329 330 330 330 330 331 332 334 334 333 335 338 338 339 340 340 338 336 334 334 334 335 336 334 336 337 339 339 343 338 337 337 339 341 342 342 343 345 337 335 335 334 334 334 332 333 335 336 339 338 337 336 335 335 337 335 334 334 337 338 336 335 334 334
299 298 299 300 300 300 301 301 302 301 302 300 299 299 322 324 327 323 327 330 333 333 331 330 328 326 325 325 325 325 325 325 327 328 328 330 330 330 331 332 334 333 335 337 338 338 339 340 339 338 336 334 333 333 333 333 334 334 336 338 339 343 339 339 338 337 337 339 339 342 342 338 338 337 334 335 334 332 332 333 337 339 337 336 334 336 335 334 334 334 335 335 335 334 333 336 336
299 299 300 300 301 300 301 300 301 301 300 299 299 300 320 322 324 319 328 329 331 329 327 327 326 324 324 324 324 325 326 326 327 329 329 329 330 330 330 332 333 334 337 337 337 338 338 337 336 337 336 337 334 334 333 332 333 333 334 335 335 335 336 336 335 335 335 335 336 337 337 340 339 337 335 334 333 331 332 334 336 337 335 336 337 337 336 335 335 334 335 334 333 333 334 334 334
300 300 300 299 300 301 301 299 300 297 298 300 301 298 312 319 322 321 325 328 328 325 324 324 323 322 323 324 324 325 326 327 328 328 327 327 328 329 330 331 332 334 335 335 335 335 334 333 334 335 334 335 335 334 334 333 333 334 333 335 334 335 336 335 335 336 337 335 336 335 335 335 338 337 337 336 334 333 334 333 334 335 335 336 338 336 336 337 336 337 338 337 336 333 334 333 334
300 299 294 298 299 298 300 299 301 299 299 300 300 299 307 316 316 322 325 326 325 324 323 322 322 322 322 322 323 324 325 327 328 327 327 329 330 331 330 332 332 332 333 332 331 333 333 334 334 334 335 334 333 333 333 334 334 334 334 334 335 335 334 334 334 335 336 337 338 336 334 335 337 335 337 337 339 335 334 333 334 333 334 336 336 337 336 336 335 335 336 336 337 334 334 333 334
300 298 295 294 294 295 299 301 301 298 299 301 300 289 296 313 318 321 323 323 323 322 321 322 322 322 322 322 323 324 325 326 326 326 328 328 330 331 330 331 331 331 330 331 333 332 334 334 335 334 333 333 333 333 333 333 333 333 334 334 336 335 334 335 336 336 338 336 337 336 335 335 334 334 335 336 336 335 333 332 333 332 333 336 338 338 335 334 335 335 334 334 337 333 332 332 331
294 297 295 288 287 290 298 299 299 297 299 300 302 290 301 314 316 321 323 323 321 319 320 321 321 322 322 323 324 324 325 326 326 327 327 329 330 331 330 329 331 331 331 331 331 332 333 333 335 334 335 335 335 333 333 333 334 334 333 333 334 335 335 334 334 335 335 336 336 335 336 336 335 334 336 334 334 334 333 334 333 332 335 338 336 336 334 334 334 334 333 333 332 331 331 333 332
292 289 288 289 288 286 295 300 299 296 299 299 299 290 307 314 316 319 322 321 320 319 320 320 320 321 322 323 323 323 323 324 325 326 327 329 329 331 329 329 331 331 330 331 332 333 333 333 334 333 333 333 332 334 334 334 334 334 335 337 334 334 334 333 332 333 334 334 335 333 335 336 335 334 337 339 336 335 334 334 334 335 336 334 333 333 333 331 331 331 331 331 329 329 330 330 330
290 289 287 287 287 287 292 297 299 299 298 298 299 291 311 313 318 319 320 319 320 318 319 319 320 321 321 322 322 322 322 322 323 324 326 327 329 330 330 330 330 330 331 331 331 332 332 333 333 332 332 332 333 333 333 333 334 335 335 334 334 333 333 333 333 333 334 333 334 333 333 335 336 338 337 337 336 335 333 333 333 333 333 332 331 330 330 330 329 329 328 330 328 325 327 327 325
286 287 286 288 288 286 287 293 297 297 299 294 309 310 312 315 318 317 319 319 318 317 318 319 319 320 321 321 321 321 321 321 321 322 323 325 327 328 329 332 330 331 332 332 332 332 331 332 332 333 332 333 333 333 334 334 334 333 333 333 334 332 332 332 333 334 334 333 333 333 335 335 334 334 335 335 334 334 331 330 331 332 331 330 329 328 327 328 328 326 325 327 327 326 326 324 322
285 284 285 286 288 290 289 291 294 296 297 295 302 311 312 315 316 317 318 319 318 317 318 318 319 320 320 320 320 320 320 320 321 324 328 330 330 329 329 329 330 330 331 331 332 332 332 332 333 334 333 333 333 334 334 332 332 332 333 332 331 331 331 331 332 332 332 333 333 335 334 332 331 330 330 332 332 331 330 329 329 329 330 329 327 326 326 326 326 324 323 324 325 326 324 322 321
288 287 285 287 287 287 289 293 296 297 292 293 307 310 313 315 314 316 317 319 317 318 319 319 319 320 320 319 320 320 320 321 326 328 330 331 331 331 331 331 332 333 333 333 332 332 332 332 332 332 333 333 333 333 332 331 331 331 329 329 329 330 330 332 331 331 332 330 329 329 329 329 329 328 327 327 328 328 328 328 327 328 329 329 326 324 323 322 321 321 321 322 321 322 322 320 320
290 290 289 288 289 289 292 293 296 297 293 292 304 314 314 314 313 315 316 318 318 318 317 318 319 320 320 320 321 321 322 323 328 329 330 330 331 331 331 332 332 333 333 332 331 330 330 332 333 332 333 333 331 330 330 329 328 328 327 327 327 328 330 330 329 327 326 327 326 326 326 326 326 326 326 326 324 327 325 326 324 324 325 325 324 322 321 321 321 321 319 320 319 318 318 318 318
291 289 288 287 290 288 292 294 296 297 294 294 312 313 313 314 314 315 316 317 315 316 316 317 318 320 320 320 321 322 323 327 328 327 329 330 330 330 331 331 331 330 331 332 330 331 332 334 333 333 332 330 329 329 330 328 327 327 327 327 328 329 329 326 324 324 324 325 325 324 325 324 324 325 326 324 324 323 322 322 322 320 321 322 321 321 320 322 318 318 318 316 318 317 315 316 316
291 288 287 287 287 291 293 295 296 296 297 302 313 311 313 314 315 316 315 316 317 318 318 318 319 319 320 320 321 322 323 324 326 326 327 328 329 330 330 330 330 331 331 331 332 333 333 332 332 332 330 328 328 330 329 329 328 329 328 327 329 330 330 327 325 325 324 321 322 323 323 322 322 322 322 323 321 320 319 319 319 319 319 321 316 316 316 316 316 316 316 314 313 315 316 316 315
289 287 285 285 289 290 286 292 295 295 302 306 311 311 312 314 316 316 317 316 317 319 319 319 320 319 320 320 321 322 322 323 323 324 325 327 329 329 329 329 329 330 330 332 333 332 332 331 331 330 328 327 329 331 331 330 330 329 329 331 330 327 324 325 323 323 321 320 320 321 321 320 320 319 320 321 319 318 317 316 316 316 317 318 315 314 314 314 314 314 313 314 312 310 311 311 314
290 290 287 287 288 291 290 289 305 311 313 314 312 309 308 311 311 313 317 318 318 319 320 319 320 321 322 323 323 323 322 324 323 324 325 326 327 328 329 329 330 329 331 332 332 331 331 331 331 329 328 327 329 331 330 330 331 330 331 329 328 326 325 322 320 319 320 321 319 318 318 318 318 317 317 318 319 315 315 315 315 315 315 315 315 314 313 312 312 312 312 312 311 308 308 308 310
289 290 290 290 290 291 292 307 306 301 303 311 309 297 297 308 311 311 314 315 315 318 317 318 318 319 320 320 321 323 324 326 324 324 325 326 327 328 328 329 329 330 330 331 332 331 331 330 329 328 327 328 329 329 330 330 330 329 327 325 324 323 321 319 316 315 315 315 315 316 316 316 316 315 315 315 317 316 314 314 314 314 314 314 314 312 312 312 311 310 310 310 310 310 308 307 306
285 288 292 292 292 290 297 303 301 296 296 305 309 296 290 303 307 309 312 314 313 316 317 317 318 319 319 319 320 322 323 324 325 326 326 326 327 327 328 328 329 329 330 331 330 329 328 327 327 328 328 328 329 330 330 330 328 329 328 326 325 323 321 320 320 318 317 315 316 314 314 314 314 313 313 314 314 315 313 313 313 313 313 313 315 312 311 310 310 310 311 310 309 310 308 305 305
286 293 292 293 292 290 291 297 300 299 305 308 305 302 298 294 302 311 313 312 312 313 315 316 317 318 318 319 320 322 323 324 324 325 325 326 327 327 327 328 329 329 330 331 329 328 327 327 327 327 328 328 327 329 330 329 329 328 326 324 324 322 321 320 320 319 319 318 315 314 314 314 314 314 314 313 314 315 314 312 313 313 313 313 314 310 310 309 310 311 311 309 310 309 307 305 304
289 293 293 291 292 292 291 289 288 297 301 296 298 303 294 295 305 311 310 307 310 311 313 315 317 318 318 319 320 322 323 324 325 325 325 326 327 327 328 328 329 330 330 330 329 327 326 325 324 324 324 324 323 325 327 328 329 327 325 324 322 322 321 320 320 320 318 318 315 315 313 313 313 313 313 313 312 313 315 312 311 312 312 312 315 310 310 309 308 308 307 307 307 308 309 308 305
293 294 294 294 293 292 292 288 287 293 296 292 297 300 290 290 302 306 307 308 308 310 312 314 317 317 318 319 320 322 323 324 325 326 326 327 328 328 329 329 329 330 330 330 329 326 323 322 322 321 320 320 321 322 325 326 326 326 324 323 322 320 320 318 318 317 316 316 314 313 312 311 311 311 311 311 310 311 311 312 311 311 311 313 313 309 308 308 307 307 307 308 307 306 306 307 306
295 294 292 291 290 290 290 288 287 291 287 292 299 299 295 288 300 304 304 306 310 312 312 313 315 318 318 320 321 321 322 323 324 326 327 327 328 328 328 327 328 329 329 328 325 323 321 321 320 319 319 319 320 320 321 322 323 323 322 322 320 318 317 316 314 313 314 314 312 311 310 310 310 309 309 309 309 309 310 312 309 310 311 313 310 308 307 307 307 307 307 306 306 306 305 304 304
292 290 289 287 286 287 287 286 288 283 280 290 298 298 297 289 296 306 311 313 314 313 311 311 313 316 317 319 321 322 322 323 324 325 325 325 325 326 327 326 326 327 326 324 322 322 321 320 318 317 317 318 318 319 319 319 320 320 320 320 319 318 317 316 313 312 313 312 310 309 309 309 308 308 307 306 306 308 309 306 308 307 308 307 306 306 305 304 305 306 306 305 304 304 304 304 302
292 289 287 283 278 281 277 282 279 277 283 287 294 297 292 290 301 307 311 311 313 315 314 313 313 315 317 318 321 322 323 323 323 324 323 323 323 324 324 325 325 324 322 321 321 320 319 317 317 316 316 317 317 317 316 317 317 317 317 318 318 319 317 316 315 314 313 310 309 308 307 306 306 306 305 305 305 306 307 306 305 305 305 306 306 305 305 304 303 304 305 304 303 303 302 302 302
290 288 282 281 277 276 273 275 276 279 286 289 294 297 290 289 297 310 310 312 314 315 316 315 314 316 316 318 321 322 322 323 323 323 322 323 323 323 324 324 324 322 320 320 319 318 317 316 315 315 314 315 315 315 315 314 314 314 315 316 317 317 316 316 315 313 312 310 309 308 307 306 305 305 304 304 304 305 305 305 305 304 304 305 305 305 304 304 303 303 303 303 302 302 302 301 301
290 291 287 283 282 279 274 276 277 280 280 286 294 291 282 288 290 306 312 314 315 316 316 315 315 317 317 318 321 322 322 322 323 322 322 322 323 323 323 323 322 321 319 319 318 317 316 315 314 313 312 313 313 313 313 313 313 313 314 314 314 314 313 313 312 312 310 309 308 307 306 305 305 304 304 304 305 304 304 305 305 303 304 303 303 302 304 303 302 303 303 304 304 302 302 302 301
290 290 290 283 284 283 281 279 280 282 283 283 287 285 291 288 301 306 313 313 314 315 313 314 314 315 316 318 320 321 321 322 322 322 321 322 323 323 323 322 321 320 319 318 317 316 315 313 313 312 312 312 313 313 312 311 311 312 313 313 313 314 314 312 312 311 309 309 308 306 305 305 305 304 305 304 304 303 303 302 303 302 303 303 303 302 302 302 302 302 301 301 302 305 301 300 300
287 289 286 288 291 288 280 282 286 280 282 280 280 292 297 301 305 307 310 311 311 312 312 313 313 314 316 318 319 320 321 321 322 321 321 321 322 322 322 321 319 319 318 317 316 316 314 313 312 311 311 311 311 311 311 311 311 311 311 311 311 311 311 311 310 309 309 308 308 306 305 304 305 305 306 305 303 303 303 302 301 301 301 301 301 302 302 301 301 301 300 300 300 301 302 300 300
288 285 287 291 294 292 286 278 281 277 276 278 287 288 292 288 286 303 307 308 309 310 311 312 312 314 316 318 319 320 320 321 322 321 321 321 321 321 321 320 319 318 317 316 316 315 314 313 312 311 310 310 310 310 310 310 310 310 310 311 311 311 311 310 309 308 309 308 307 306 305 305 304 306 305 304 301 301 301 303 299 299 299 299 300 300 300 301 301 301 300 300 300 300 300 300 300
292 290 293 290 280 283 283 282 278 276 277 277 286 292 291 290 294 301 303 305 306 308 310 310 311 313 316 317 319 320 321 320 320 320 319 320 320 321 320 319 319 318 317 316 316 315 314 312 312 311 310 310 310 310 310 310 311 311 311 310 310 311 311 311 310 309 308 307 305 305 304 303 304 304 303 300 299 299 298 298 297 297 297 298 298 298 299 299 300 300 301 299 299 299 299 298 299
293 293 292 292 287 283 283 282 282 283 275 277 280 288 285 294 300 304 304 306 308 308 309 309 311 313 315 317 319 319 319 319 319 319 319 319 319 320 319 318 317 317 316 316 315 314 312 312 311 310 310 310 310 310 310 309 310 310 310 310 310 311 312 310 309 307 307 306 304 304 303 302 301 302 300 300 298 298 297 296 296 296 297 297 297 298 298 298 299 299 300 299 299 299 298 297 297
286 287 285 290 291 290 289 289 285 282 276 276 276 280 281 290 304 306 306 308 309 309 309 310 311 314 316 317 318 318 319 318 318 318 319 319 319 319 319 319 318 317 317 316 314 313 312 311 310 310 309 309 309 309 309 309 309 309 309 308 308 309 309 308 306 305 304 304 304 304 302 302 301 300 299 298 297 296 296 296 295 297 295 296 296 296 297 297 298 298 299 299 299 298 297 297 297
284 284 282 284 287 285 282 280 286 286 282 277 278 276 280 291 307 309 308 310 310 311 311 311 312 314 315 316 318 318 318 318 318 319 318 318 318 318 318 318 317 316 315 314 314 313 312 310 310 309 309 309 308 309 309 308 308 308 307 307 306 307 307 306 305 304 304 303 303 302 303 302 301 300 299 298 297 296 295 295 295 294 294 295 295 295 295 296 296 297 297 300 298 297 296 296 296
Wind_Speed
9 7 6 7 2 0 2 3 2 4 3 5 5 3 2 3 4 2 2 2 2 3 2 3 4 4 3 4 10 7 8 5 3 8 6 2 4 11 14 15 13 12 12 9 8 8 8 10 13 15 15 14 15 15 15 16 16 16 16 16 15 15 15 15 15 14 13 12 11 11 12 12 11 12 11 11 11 10 10 10 10 10 10 11 11 12 11 9 9 8 9 10 9 9 8 8 8
6 7 5 6 3 2 2 0 3 3 6 6 7 1 4 0 3 4 5 0 2 2 1 7 9 14 16 14 8 5 8 9 5 5 5 7 10 9 12 14 15 15 11 9 8 8 7 8 13 12 14 15 15 15 15 16 15 16 15 15 15 14 15 15 14 14 13 12 12 12 12 11 12 12 11 11 10 9 8 9 9 9 10 10 10 11 10 9 9 9 8 8 9 8 8 8 8
5 7 8 7 4 4 0 3 2 1 2 4 7 3 3 4 0 4 3 6 8 9 8 11 10 8 5 3 7 4 1 6 11 7 7 10 13 7 11 12 12 13 12 8 8 8 6 8 14 13 15 15 15 15 16 15 15 15 16 15 15 15 15 15 15 14 13 12 11 11 11 11 12 11 11 11 10 9 8 8 8 9 9 9 9 10 9 8 8 8 8 8 8 7 7 7 8
3 2 4 3 3 4 2 2 3 1 1 6 7 4 3 5 6 3 6 8 11 11 6 3 4 4 3 8 5 11 7 4 4 12 8 8 5 11 10 14 12 10 9 8 8 8 6 11 13 13 14 14 15 15 15 15 15 15 15 15 15 15 14 15 14 14 13 12 11 11 11 11 11 11 11 11 10 9 8 8 8 8 8 9 9 10 9 8 8 8 7 7 6 6 6 7 7
6 3 0 3 3 3 1 1 1 2 3 3 6 7 9 6 7 3 2 8 7 6 4 5 5 4 3 9 3 3 6 8 9 5 9 7 12 12 13 13 11 11 10 9 8 8 8 15 11 12 14 15 15 15 15 15 14 14 15 15 15 15 14 15 14 14 13 12 12 11 11 11 11 11 10 10 10 9 9 8 8 8 9 9 9 8 8 7 8 7 7 7 6 6 5 5 5
4 7 2 1 1 3 3 1 2 2 7 2 4 7 10 9 10 11 2 4 2 1 6 4 5 5 2 2 1 3 16 10 9 5 11 11 15 15 14 11 11 10 10 8 8 7 8 15 13 11 12 15 15 15 15 14 14 14 15 15 15 15 14 14 14 14 14 12 11 11 10 10 10 10 10 9 9 8 8 7 7 7 7 7 7 7 6 6 7 7 7 6 6 5 4 4 4
4 6 2 3 2 3 4 2 3 3 9 4 4 11 12 13 13 9 5 0 3 4 6 5 12 10 4 0 5 3 2 10 8 10 11 16 17 16 14 12 10 11 10 8 7 7 10 13 11 12 12 14 14 15 14 14 14 14 14 14 15 15 14 14 13 14 13 12 11 10 9 9 9 9 8 7 7 7 7 6 6 6 6 5 6 6 6 5 6 7 7 6 6 4 4 4 4
1 3 2 3 0 2 0 2 3 3 7 3 5 9 15 14 13 8 7 4 3 2 1 9 7 8 1 4 3 1 8 2 13 15 20 19 17 16 15 13 12 10 9 7 6 7 14 13 12 11 13 14 15 14 13 14 14 13 14 14 14 14 14 14 13 12 12 11 10 10 9 9 9 8 7 7 6 6 5 5 5 5 4 5 4 4 4 5 5 6 6 6 5 4 4 4 5
3 1 1 5 1 1 0 3 5 3 5 6 9 11 16 15 11 7 13 4 2 4 11 8 6 9 2 5 2 3 7 15 17 20 20 20 18 16 11 13 14 11 10 8 7 6 7 13 11 11 13 13 14 14 14 14 13 14 14 14 14 13 13 13 12 12 11 10 10 9 9 9 9 9 8 7 7 6 6 5 4 4 4 3 3 3 3 4 4 5 6 5 5 5 5 6 5
1 1 1 2 4 1 1 5 1 5 4 6 7 12 14 11 9 8 11 13 5 7 6 2 2 8 9 9 7 4 7 17 18 17 17 18 19 15 14 13 14 15 10 8 8 7 6 13 11 10 10 12 12 13 13 13 13 13 14 14 12 12 12 12 11 11 11 11 10 9 9 9 9 9 8 7 7 6 5 5 4 4 2 3 2 2 2 3 4 4 5 5 5 5 5 6 7
0 0 2 2 1 2 3 6 4 5 5 6 8 13 13 9 8 9 9 13 10 8 5 11 9 11 7 3 2 1 13 17 18 16 17 19 17 16 14 13 12 13 12 10 9 7 7 7 14 10 10 10 10 11 11 11 11 11 11 11 11 11 12 12 12 11 11 10 10 9 9 9 8 8 8 7 7 6 5 5 4 4 3 2 1 1 2 3 4 4 5 5 5 5 5 5 5
0 1 0 2 4 7 6 4 4 6 7 6 7 13 7 7 5 6 9 5 9 6 9 5 7 11 8 3 3 9 13 13 15 15 17 17 15 16 15 10 11 10 12 11 8 7 7 7 7 12 12 11 11 11 11 12 12 11 11 11 11 11 11 12 11 11 10 10 10 9 8 8 8 8 7 7 6 6 5 5 5 4 3 2 1 1 2 2 3 4 4 5 5 5 5 5 5
2 1 3 2 3 3 3 2 4 5 4 5 9 8 5 5 7 10 15 3 9 7 2 4 17 4 4 3 4 8 11 10 11 17 17 15 15 13 13 12 12 11 10 9 9 8 7 5 5 6 10 14 11 12 12 13 11 11 11 11 11 11 11 11 11 11 10 10 9 9 8 7 7 7 6 6 6 6 5 5 5 4 3 3 2 0 1 1 2 3 4 4 5 4 5 6 6
3 5 6 4 1 4 4 4 2 3 5 7 7 9 5 4 7 9 6 1 6 7 3 15 10 11 9 7 6 8 9 10 16 15 15 16 14 14 15 12 12 11 9 8 8 7 6 5 5 5 6 6 6 11 13 13 11 11 10 10 10 10 11 11 11 10 10 9 9 8 8 7 7 6 6 5 5 5 5 5 4 4 3 3 2 1 1 1 2 3 3 4 4 5 5 6 7
4 2 2 2 2 4 3 4 6 6 7 5 7 7 6 7 7 5 1 2 4 2 12 5 8 9 9 12 6 10 10 15 15 16 16 16 16 15 15 12 11 10 9 8 7 7 7 6 5 5 5 5 5 5 5 10 13 11 10 11 10 10 9 10 10 9 9 9 8 8 7 7 6 6 5 5 5 5 5 4 4 3 3 2 2 1 2 2 3 3 4 4 5 5 5 7 8
5 2 1 3 4 5 4 4 3 3 8 5 9 8 8 13 5 5 3 6 5 4 9 5 5 2 10 15 17 16 16 18 16 17 17 18 16 14 14 12 10 8 7 7 6 5 6 6 5 5 5 5 4 4 5 5 10 11 11 10 10 9 9 8 9 9 9 8 8 7 7 4 5 4 5 3 4 3 4 2 3 3 2 2 2 2 2 3 4 4 5 5 5 6 7 7 8
2 2 3 2 5 5 4 3 5 6 7 7 10 6 8 10 4 3 4 6 14 8 1 3 2 3 16 4 15 17 19 18 18 19 17 13 12 11 10 9 8 7 5 6 5 6 5 6 5 4 4 5 5 5 4 4 7 10 8 9 9 8 8 8 8 8 8 7 6 7 5 1 1 1 1 1 2 0 2 2 2 2 1 1 0 2 3 4 5 6 7 7 7 7 7 8 9
2 5 4 6 5 7 5 8 7 4 5 6 9 8 7 11 3 2 5 10 10 9 8 5 12 11 11 12 15 17 19 19 18 18 14 12 11 10 10 9 8 7 6 6 4 5 6 5 5 4 4 5 5 4 4 4 4 7 3 3 4 5 6 6 5 3 6 3 6 4 2 2 1 1 1 3 1 1 1 1 0 1 1 1 2 3 4 5 6 7 7 8 8 7 8 5 5
7 3 6 12 7 6 6 5 7 1 6 8 8 9 2 8 5 2 3 3 7 9 5 7 12 14 16 17 18 18 17 15 15 16 15 14 13 15 12 10 10 9 7 6 6 7 6 6 6 6 5 5 6 5 5 5 5 4 3 3 3 5 4 3 2 3 1 2 1 2 2 1 2 2 1 3 2 3 2 2 2 2 2 3 3 4 5 6 6 7 7 8 8 8 4 4 5
7 4 9 8 6 6 7 4 6 7 6 7 13 6 3 8 3 1 4 8 9 14 8 5 14 16 17 18 19 16 13 11 11 15 15 14 15 15 15 14 12 10 9 8 8 7 7 7 7 8 8 8 7 6 6 5 5 4 4 4 5 3 3 1 3 1 2 2 2 1 2 2 2 2 5 6 3 1 1 2 2 3 5 5 6 4 5 6 7 7 7 7 5 3 3 4 5
2 6 6 6 6 6 9 10 10 11 7 9 5 5 7 8 2 3 2 6 1 2 3 13 17 20 18 15 15 17 17 11 9 7 11 10 8 8 10 12 13 12 10 8 7 7 6 6 7 8 9 9 9 7 7 6 4 4 4 5 5 4 4 3 4 3 2 3 3 3 3 1 1 1 1 1 2 0 0 0 1 2 2 3 5 4 4 4 4 5 4 4 3 3 3 4 3
1 10 6 5 5 8 7 9 11 9 13 4 4 6 9 2 4 6 1 4 5 7 9 15 21 22 22 17 18 17 20 17 14 8 8 11 11 10 8 8 8 8 7 7 8 7 6 8 8 8 8 8 8 7 7 6 6 5 5 5 4 4 4 4 3 3 3 3 3 4 4 4 3 2 2 2 2 1 1 2 2 2 2 3 2 4 4 4 5 4 4 5 5 3 4 4 4
8 5 5 7 5 7 5 11 11 13 7 6 4 6 1 5 4 4 10 3 3 13 17 21 19 16 15 17 16 16 17 17 16 13 11 13 13 12 12 9 12 10 7 8 7 7 7 8 7 7 6 6 6 6 5 5 6 6 6 5 5 5 3 3 4 3 2 3 4 5 5 5 4 3 2 1 2 1 0 1 2 2 2 4 3 3 3 4 5 5 5 5 5 4 4 4 3
8 8 3 8 10 11 7 6 9 6 8 3 4 0 2 6 7 4 11 6 13 15 17 16 18 17 18 18 16 17 17 20 22 17 11 12 15 17 13 10 6 9 11 11 9 9 8 8 7 6 6 6 6 6 5 5 5 5 5 5 5 6 4 3 5 2 4 5 3 3 3 4 4 2 1 1 1 0 1 1 2 3 2 4 4 3 4 5 5 5 4 4 5 4 4 4 3
12 10 8 4 6 10 12 12 13 7 6 6 2 5 2 7 7 4 8 9 11 15 18 19 17 16 14 17 17 17 16 13 14 11 7 3 7 10 12 10 10 9 12 13 11 10 11 9 7 8 7 7 6 6 6 6 5 5 4 4 5 4 3 3 3 3 3 3 3 4 5 4 4 3 0 0 1 2 2 2 4 4 3 4 4 3 3 4 5 4 4 4 3 4 4 4 3
11 11 6 7 6 7 11 12 16 13 8 5 5 4 8 15 15 12 6 9 9 14 16 16 16 15 14 13 15 14 14 15 14 12 11 8 7 9 10 12 12 12 11 13 12 11 11 11 10 10 9 8 7 6 5 4 3 3 3 3 2 3 4 4 3 4 4 4 4 3 1 2 5 5 2 0 0 2 2 2 3 4 4 3 2 4 4 4 5 5 4 2 2 2 2 4 3
3 9 10 10 10 7 7 13 15 10 6 5 9 6 9 4 5 3 2 7 9 12 14 12 15 14 12 11 11 12 16 16 16 12 10 9 10 9 10 9 11 12 11 12 12 11 11 11 10 8 6 5 5 5 4 4 4 4 3 4 4 5 4 4 4 4 4 4 3 2 2 2 1 2 3 3 1 1 2 2 3 4 5 5 4 5 3 4 4 3 2 3 3 3 3 4 4
5 7 9 11 12 11 7 7 13 4 4 10 13 7 3 7 3 11 11 6 8 13 11 13 13 12 11 10 8 7 11 11 11 13 15 14 12 10 11 10 11 12 12 12 10 9 10 8 8 8 8 7 7 6 5 5 4 3 3 5 5 4 4 4 4 4 4 4 2 3 3 3 2 3 2 2 2 2 2 3 3 4 4 5 3 3 4 3 3 2 3 3 2 3 4 4 3
9 7 5 13 14 12 12 13 11 8 4 9 8 5 7 3 8 12 10 6 8 11 12 11 12 10 9 8 7 8 11 11 11 11 13 11 11 11 13 12 11 10 6 8 8 8 8 8 9 8 8 7 9 8 6 5 4 3 3 5 4 4 4 4 4 4 4 5 4 2 1 1 3 1 1 4 4 3 1 3 3 2 3 4 3 1 2 3 3 4 5 3 4 4 4 5 4
7 7 7 5 7 12 15 11 12 8 4 9 7 7 1 2 8 8 7 10 11 11 12 7 8 8 7 7 9 9 9 10 10 10 10 10 10 10 12 9 7 8 7 5 6 7 6 5 6 7 8 8 8 7 6 6 5 4 4 4 4 4 4 5 4 3 4 4 3 3 2 2 3 3 2 3 4 3 3 3 2 3 4 4 4 4 4 4 4 4 5 4 4 4 4 4 4
8 9 4 5 7 9 11 7 9 7 5 10 8 7 4 2 3 6 7 10 15 13 11 9 9 8 8 7 8 10 9 9 11 11 11 10 9 7 7 7 9 6 6 6 8 8 7 6 6 6 7 8 9 7 7 6 4 5 5 4 3 4 4 5 4 4 4 2 2 1 1 2 3 3 3 2 4 3 4 3 4 3 3 4 4 5 5 5 5 4 5 5 5 5 5 4 4
3 4 9 7 9 4 5 11 8 10 2 7 9 4 6 7 5 6 7 7 11 15 13 11 10 9 10 8 9 8 8 6 6 7 8 9 7 7 9 11 8 9 10 8 8 8 7 5 6 8 6 8 7 8 6 6 5 4 5 5 4 3 4 4 3 4 3 2 2 0 1 2 3 2 1 3 5 6 5 5 5 5 4 4 4 5 5 6 4 4 5 5 6 6 6 6 5
4 9 7 9 8 6 2 8 10 12 4 3 11 5 8 2 6 7 6 9 10 15 12 12 11 11 10 8 8 7 8 6 5 6 5 3 4 4 6 6 8 9 9 9 9 8 7 6 7 9 8 8 8 8 6 5 5 5 5 4 3 4 5 4 4 4 4 2 1 2 2 2 3 5 7 7 8 6 5 5 4 4 3 5 5 5 5 5 5 5 6 6 5 4 5 6 7
8 6 8 6 9 4 6 2 6 9 9 4 2 10 7 8 12 9 9 9 11 14 13 12 11 9 9 8 8 9 9 9 8 4 3 3 3 3 4 5 6 5 6 8 8 9 8 6 6 6 7 6 7 8 7 6 5 6 5 5 4 5 4 4 4 4 4 2 2 2 2 3 6 6 7 7 7 6 5 5 4 4 4 5 5 5 5 5 6 6 6 6 6 5 7 7 7
11 6 5 4 4 8 6 7 5 7 7 7 4 7 8 11 10 10 10 6 11 14 14 13 12 9 9 8 8 7 7 8 5 4 4 5 5 5 5 5 5 4 4 7 6 7 8 6 5 6 6 6 7 7 7 6 6 6 5 6 6 5 5 4 4 5 4 3 4 4 5 5 6 7 8 7 7 6 5 5 5 4 5 5 6 6 6 6 6 6 6 6 6 5 6 6 6
4 3 3 4 8 7 9 6 3 10 5 5 11 9 12 13 10 9 10 8 9 11 11 10 10 9 9 8 8 7 7 6 4 6 7 6 7 7 6 6 6 6 5 6 7 6 7 6 5 5 5 6 6 6 6 6 5 6 7 6 7 6 5 6 5 4 5 6 5 5 6 6 7 7 8 8 8 6 6 6 6 5 5 6 7 7 6 6 6 6 6 5 6 5 7 7 7
1 4 4 6 7 4 4 4 5 8 4 6 7 13 15 13 13 12 11 9 9 11 12 10 9 9 9 9 9 9 8 7 7 7 8 9 10 8 7 6 7 7 6 6 6 6 5 6 7 6 4 4 6 6 5 6 7 6 5 6 7 5 6 6 6 5 6 5 6 7 7 6 7 7 7 8 7 6 5 5 6 6 6 7 6 5 4 6 6 5 3 4 6 6 8 8 9
9 4 5 7 8 8 5 6 4 5 7 1 10 13 13 13 9 9 8 11 13 15 14 13 13 12 10 12 11 10 9 8 9 8 9 9 9 8 6 6 7 9 6 6 6 6 5 5 6 6 4 3 4 4 5 5 3 4 6 6 6 6 6 6 6 5 5 5 7 7 7 7 7 7 7 7 7 6 5 5 6 6 6 5 5 4 5 6 6 6 4 4 4 5 5 8 9
9 7 5 5 7 4 2 2 4 2 6 3 11 15 10 10 10 9 10 9 9 8 11 13 15 14 11 11 11 12 13 11 9 9 9 9 9 9 7 6 6 7 8 6 6 6 5 5 5 4 4 4 3 4 4 5 4 5 6 5 6 6 6 6 6 5 5 6 7 7 7 6 6 6 6 6 5 5 5 6 6 5 5 4 6 7 6 7 6 6 6 4 4 4 4 7 9
8 6 4 7 4 8 7 5 2 1 6 8 9 13 9 7 7 10 8 8 8 6 5 8 9 13 14 14 14 14 14 12 12 12 11 11 8 8 7 6 6 7 6 6 5 6 5 4 4 4 4 4 4 4 5 5 6 7 6 7 7 7 7 6 6 5 5 7 8 6 6 5 5 6 6 5 6 6 6 6 5 6 6 5 6 7 7 7 6 6 6 7 3 5 5 6 7
10 8 4 4 4 7 7 4 5 6 7 16 11 9 4 7 11 9 7 6 10 9 8 5 6 5 7 8 9 11 14 11 12 12 12 10 11 10 8 7 7 7 6 5 5 5 4 5 4 5 5 4 4 5 6 7 9 8 8 9 9 9 6 5 6 6 5 6 6 6 5 5 7 7 6 6 6 7 6 6 6 5 6 6 6 7 6 5 5 5 6 6 6 3 5 4 7
8 7 8 5 4 7 5 9 9 4 3 6 20 3 5 5 8 10 10 9 9 10 12 11 9 8 9 11 10 10 11 10 14 15 13 11 10 9 9 9 7 6 6 5 6 6 5 5 5 5 4 5 6 6 7 8 9 11 10 9 8 6 6 5 6 6 4 5 5 3 6 6 7 7 7 7 7 6 7 6 6 6 7 7 6 6 5 5 6 6 5 5 6 5 5 7 6
7 7 8 8 6 2 6 7 10 5 10 10 4 14 5 3 5 7 10 11 11 9 11 11 11 10 10 9 10 11 12 10 10 11 11 11 11 10 11 9 8 8 6 6 7 6 5 4 5 5 5 5 5 5 6 7 7 7 8 9 8 7 7 5 5 4 6 5 5 6 6 7 7 8 7 6 6 6 6 6 6 6 6 6 5 6 6 5 5 4 4 5 5 5 6 8 7
10 3 6 8 9 5 6 5 6 6 1 14 8 1 9 5 8 8 11 12 12 12 12 13 11 11 11 10 11 11 12 11 12 13 13 11 10 11 11 9 8 8 8 8 7 5 6 5 5 5 4 4 3 4 5 5 8 7 7 7 7 7 8 8 7 6 5 5 6 6 7 7 7 7 7 7 6 6 6 6 6 6 6 5 5 6 5 4 5 4 4 4 4 5 5 7 5
5 3 5 6 8 9 5 6 4 3 8 6 4 5 4 3 7 7 5 8 9 14 15 16 15 12 12 12 13 12 12 11 11 12 14 12 12 11 11 10 8 9 9 8 7 6 5 4 5 5 5 4 3 4 5 4 5 7 8 8 8 5 8 7 6 6 6 5 8 7 8 7 7 8 8 7 6 6 5 5 5 5 5 4 4 5 4 4 4 4 4 5 5 6 5 4 5
6 5 3 4 4 4 7 6 5 4 4 8 11 8 6 2 6 12 11 11 12 14 15 15 15 16 13 13 13 12 10 9 9 9 11 10 11 11 10 10 9 9 8 8 7 6 5 5 7 7 6 5 4 6 6 6 6 8 8 9 10 7 6 6 6 7 6 6 8 7 6 7 6 6 7 7 6 5 6 5 5 5 4 5 4 4 3 3 3 3 4 4 5 7 6 7 8
3 5 7 6 2 3 2 4 4 5 7 9 14 15 9 6 9 13 15 15 20 15 10 10 10 11 12 12 13 13 11 10 9 9 10 10 10 11 12 12 10 10 8 8 8 7 5 6 8 8 6 6 6 7 7 7 6 6 8 9 10 10 8 8 7 6 6 7 8 7 6 6 6 6 6 6 5 5 5 5 5 4 5 5 5 5 4 4 4 4 5 7 8 8 8 9 9
5 4 5 5 7 2 0 1 3 5 6 10 14 14 7 10 7 10 15 13 17 20 21 20 17 16 15 13 12 13 13 11 10 11 11 12 12 12 12 11 11 10 9 9 8 7 7 7 8 9 6 6 7 7 8 7 7 6 6 8 9 8 8 7 8 7 7 8 8 7 6 6 6 6 6 6 5 5 5 5 4 5 6 6 6 4 5 5 5 6 6 7 7 8 8 9 8
9 8 2 7 2 3 4 2 5 5 8 6 11 11 3 6 9 21 23 13 16 19 19 22 22 19 16 14 14 13 12 12 12 10 11 11 12 13 13 12 11 10 10 10 10 8 7 7 7 9 7 6 7 7 8 7 7 6 6 6 6 6 6 7 7 7 6 8 7 7 7 7 6 6 5 6 4 5 4 6 6 6 6 6 5 6 5 7 6 6 6 7 8 8 8 8 8
11 12 6 7 6 4 5 3 1 1 6 4 13 13 8 2 3 16 24 20 20 23 19 19 21 22 19 16 14 13 13 14 12 11 11 12 12 11 13 12 11 10 10 9 9 8 6 6 7 9 7 6 6 7 7 8 7 6 6 6 7 6 6 7 6 7 7 7 6 7 6 6 7 6 5 4 3 4 5 4 5 6 5 6 6 6 6 6 6 7 6 7 7 7 8 8 7
14 8 7 7 5 3 5 3 7 7 7 2 5 9 5 3 3 12 21 25 19 16 9 5 8 13 14 13 13 14 15 14 12 12 12 12 14 13 13 12 10 10 11 9 8 8 7 7 8 9 8 7 8 7 7 8 6 6 6 7 7 6 7 7 6 6 7 8 7 8 6 6 7 5 5 3 4 5 5 6 6 7 6 6 6 6 6 7 6 7 7 7 7 7 8 8 8
8 4 5 4 8 6 4 7 7 4 4 3 5 4 1 3 4 4 11 6 6 9 9 11 12 11 12 13 13 14 14 14 13 13 12 12 13 13 11 10 10 10 11 9 9 8 8 7 7 8 9 7 7 7 7 7 6 6 7 8 7 7 7 7 7 6 7 7 8 8 7 6 6 6 4 4 4 5 6 6 7 7 6 6 6 6 6 7 7 8 7 7 8 5 8 10 9
6 8 11 10 5 7 2 1 0 3 6 4 2 2 0 1 7 7 11 10 9 10 9 12 13 14 15 14 13 14 14 14 13 13 12 13 11 12 12 10 10 11 10 10 10 9 10 9 8 9 8 7 7 7 7 6 6 7 6 7 7 7 7 8 9 8 8 7 8 8 7 5 5 5 5 4 5 4 6 6 7 7 7 6 7 6 6 6 7 7 7 7 7 6 8 9 8
5 9 9 2 2 3 5 4 1 2 6 3 2 7 4 2 2 2 7 11 10 11 12 12 13 15 16 15 14 15 15 14 14 13 13 13 12 14 13 10 11 11 11 11 11 9 9 8 9 10 8 9 6 7 6 6 7 7 6 7 6 7 7 8 9 9 7 8 7 7 5 6 5 5 5 5 6 7 6 7 7 7 7 7 7 7 6 6 6 7 6 6 5 6 8 8 8
8 9 7 11 6 8 2 4 5 2 5 1 1 6 5 6 6 6 8 12 12 12 12 13 16 17 17 15 15 14 14 13 13 14 13 13 13 13 13 12 12 12 12 11 10 10 9 7 7 8 9 8 7 6 5 5 5 5 5 7 7 7 7 8 7 8 7 8 7 6 5 4 5 6 7 6 7 7 7 7 6 6 7 7 7 7 7 7 6 6 5 6 6 7 9 8 7
3 3 11 6 4 4 3 5 5 8 4 4 1 0 3 4 11 17 17 17 17 16 14 17 19 20 17 16 15 15 15 14 14 14 13 13 12 13 13 13 13 13 13 12 12 10 10 9 9 8 7 7 7 6 6 6 5 6 6 6 5 6 7 8 7 7 7 7 6 6 6 7 7 6 7 7 7 7 7 7 6 6 7 7 7 7 7 6 6 5 5 7 6 8 9 8 6
6 4 2 4 4 3 5 1 4 5 5 4 5 2 6 6 9 18 19 19 19 20 21 17 18 19 17 17 16 16 16 15 15 14 13 13 13 12 12 12 12 11 11 11 11 12 11 9 9 9 10 8 7 6 6 5 6 6 6 6 5 6 8 8 8 7 8 7 6 6 7 6 6 7 7 8 7 7 7 6 7 7 7 7 7 7 6 6 6 6 5 6 6 7 8 6 6
6 7 6 5 7 4 5 6 1 3 5 3 7 5 6 8 7 16 20 18 19 21 22 19 19 19 17 15 16 16 15 15 15 14 13 13 13 12 12 11 11 11 12 12 11 11 11 10 10 9 9 8 8 6 6 6 5 5 5 5 6 6 7 7 8 7 7 7 6 6 6 7 8 6 8 8 8 6 6 6 6 6 6 6 6 6 6 6 7 6 6 4 6 7 7 6 6
Wind_Direction
313 316 311 307 303 145 69 354 45 312 40 314 328 343 264 55 288 29 307 342 38 322 308 30 72 138 175 170 132 114 31 138 210 143 213 167 99 114 119 125 125 123 127 136 139 139 139 137 134 132 129 127 125 121 119 117 116 113 110 106 105 104 103 102 100 99 97 95 95 96 97 97 97 97 98 100 105 108 109 108 104 106 105 104 100 91 85 83 83 83 79 77 79 84 85 87 89
294 314 318 316 334 59 332 47 100 359 22 345 289 345 254 37 3 334 304 39 139 159 136 94 87 88 95 118 124 85 28 18 40 99 85 116 107 104 122 127 134 129 132 133 132 132 135 135 135 130 129 129 125 123 121 119 117 114 110 107 105 104 104 104 102 100 98 97 97 99 100 100 100 99 98 99 101 107 112 110 108 107 107 101 91 87 84 76 73 72 73 75 77 83 88 86 85
316 342 345 351 26 72 4 47 20 32 28 303 281 239 307 352 234 302 309 124 136 131 121 102 99 87 107 37 45 80 197 77 89 88 102 135 114 136 125 124 125 126 127 129 131 128 130 137 136 131 131 128 127 124 123 121 119 116 111 109 108 107 106 105 104 103 101 98 98 99 102 102 100 100 99 100 103 103 103 106 107 103 102 105 96 88 82 78 73 67 66 68 70 79 84 85 83
334 18 30 14 358 25 56 18 105 129 211 241 286 274 273 284 269 210 269 156 153 146 143 120 65 308 110 71 107 90 104 121 135 135 133 160 138 134 126 123 123 122 123 127 129 128 130 138 135 134 132 130 129 127 125 123 120 116 114 112 110 110 108 106 107 106 104 102 102 102 103 103 102 100 99 100 101 102 100 102 106 105 105 95 84 79 75 70 67 62 57 55 59 66 71 74 70
2 321 120 84 105 10 79 194 154 98 268 235 274 289 285 270 274 282 262 156 209 172 142 141 102 10 67 119 168 148 167 114 144 142 119 100 120 125 125 124 126 125 125 128 127 126 135 136 132 135 134 133 131 129 127 125 121 118 117 115 114 111 111 111 110 108 107 105 103 101 102 103 103 101 101 103 106 107 107 107 104 94 81 78 77 78 72 65 61 58 51 47 43 46 48 45 58
12 27 333 88 96 188 51 31 330 254 231 202 288 272 281 286 295 300 299 294 258 257 132 118 143 164 57 311 143 127 139 151 147 109 122 132 128 129 127 128 124 122 124 125 126 127 134 137 137 135 137 136 133 130 128 125 122 121 119 117 116 115 115 115 112 111 110 108 106 103 99 97 99 100 102 102 102 104 105 103 104 109 100 89 88 86 79 70 70 63 55 46 40 31 21 22 28
12 12 353 23 3 60 155 158 228 221 272 167 255 285 286 293 287 296 308 9 3 56 319 122 108 94 71 108 52 53 53 116 129 141 130 136 132 131 131 124 119 118 123 127 122 124 129 132 133 137 138 137 134 131 128 125 124 122 120 118 118 118 117 116 115 113 111 107 103 102 103 104 104 104 104 107 111 104 101 96 86 85 97 99 90 80 75 70 70 68 62 52 42 25 6 359 5
128 80 299 94 256 57 70 192 237 162 272 200 249 275 283 282 287 305 296 224 223 170 157 136 123 96 110 11 112 79 106 71 115 121 125 131 134 126 124 125 120 117 120 116 114 123 132 130 133 137 138 137 133 129 128 127 125 123 122 119 119 119 118 117 116 115 113 109 107 106 107 105 103 103 100 102 102 102 98 103 105 85 89 83 88 70 67 70 67 72 69 59 42 31 14 0 2
12 97 312 70 65 19 64 216 232 240 278 290 278 264 270 277 293 300 294 244 179 150 165 173 149 97 215 83 62 107 83 110 117 125 130 130 125 125 125 127 123 124 121 121 119 115 120 132 133 135 136 133 131 130 129 128 126 125 122 120 119 119 119 119 119 118 114 114 112 111 110 106 104 102 102 104 104 103 104 99 105 114 83 90 89 70 66 64 62 68 72 67 52 28 16 11 6
16 136 277 149 137 212 279 296 286 241 228 257 262 276 277 284 298 286 285 286 200 153 164 113 62 114 123 103 111 98 124 123 125 128 129 122 126 123 122 124 126 126 126 120 117 122 130 133 131 134 134 131 129 129 128 127 126 124 123 121 121 121 121 120 121 120 118 117 117 116 112 109 108 107 106 104 105 106 111 112 114 117 112 87 77 65 64 50 41 50 62 56 46 32 15 8 2
355 350 166 95 101 178 199 258 260 294 270 271 278 270 271 287 274 282 270 276 160 144 116 104 76 115 106 81 26 105 130 130 132 134 125 125 122 120 118 123 126 128 126 126 127 126 126 130 131 127 126 124 123 122 122 121 121 120 120 121 121 120 122 124 125 125 123 123 124 124 122 121 121 120 119 114 108 108 112 120 120 131 132 128 91 57 44 31 23 30 44 49 35 23 8 355 354
39 211 83 133 195 171 218 210 240 262 278 292 281 274 281 282 292 277 280 273 158 159 147 160 155 122 83 98 120 138 137 136 134 125 125 120 117 117 118 118 116 115 120 124 118 115 117 119 124 129 120 117 119 120 119 120 119 120 120 120 122 124 126 130 129 129 131 132 132 132 134 132 130 130 126 123 120 115 116 122 132 131 144 137 149 56 18 10 10 16 26 35 33 19 360 350 340
155 139 99 105 225 174 201 210 251 250 304 278 262 277 291 315 274 265 271 178 162 127 177 206 138 125 113 131 134 139 143 140 120 124 121 117 115 113 111 111 111 114 113 108 109 106 104 105 106 112 126 122 118 120 122 122 119 120 121 124 127 129 133 135 136 137 138 140 140 141 142 140 135 134 135 130 124 123 122 122 129 137 144 157 167 187 348 355 353 359 11 22 19 9 351 337 328
154 184 137 218 190 172 165 217 248 265 262 256 268 268 291 279 279 254 239 71 174 175 162 138 127 114 98 108 146 152 152 123 123 120 116 113 112 111 109 109 110 109 104 102 100 99 95 96 103 107 115 118 126 126 126 124 122 123 128 130 130 135 138 140 142 144 144 144 143 145 146 147 147 143 139 136 129 127 125 123 123 138 146 156 168 204 244 299 311 328 342 356 359 354 345 334 324
200 190 103 158 217 162 215 185 195 216 252 248 265 283 305 278 282 309 359 113 14 106 102 84 151 100 195 156 163 175 150 131 122 117 111 109 107 107 107 107 106 104 101 96 91 97 98 96 93 98 106 109 118 119 130 130 128 132 132 134 137 140 141 145 147 146 147 143 143 146 153 152 155 153 150 144 144 145 139 130 128 133 148 161 189 209 268 284 301 311 325 337 339 338 333 329 322
191 126 138 167 220 172 265 196 203 228 262 242 262 277 293 283 274 276 275 157 117 106 125 156 236 182 174 180 163 155 136 127 121 112 109 105 103 102 103 102 100 99 99 95 93 93 103 103 102 107 110 118 118 120 120 126 133 136 139 139 142 145 148 149 151 149 149 147 147 153 159 162 162 160 157 154 150 141 137 133 132 127 138 160 198 240 259 286 293 301 314 325 335 331 325 326 319
141 141 232 172 241 182 237 207 182 233 240 258 268 285 272 285 293 54 5 80 122 164 63 33 237 11 160 107 135 129 120 122 115 111 106 107 109 105 102 101 105 101 97 91 106 114 112 114 117 113 122 122 117 112 115 125 138 141 143 148 149 151 157 161 155 155 151 152 152 159 161 125 138 254 154 175 178 158 176 141 123 129 131 139 231 277 295 296 307 310 319 327 328 322 320 318 315
133 199 181 222 193 203 193 208 190 196 229 262 274 261 268 279 315 188 61 43 73 67 63 51 55 67 96 110 114 108 116 115 114 110 109 111 115 114 110 115 119 119 116 116 120 134 131 131 132 128 125 123 123 121 129 138 148 147 147 152 158 168 172 170 163 164 163 157 163 166 151 175 191 231 254 203 125 232 255 235 107 47 14 350 323 316 311 305 310 314 314 315 314 320 319 324 318
193 182 178 216 183 215 188 206 224 216 232 245 258 266 258 259 215 232 104 156 111 82 48 83 79 83 90 91 90 95 99 100 103 108 119 128 129 128 129 131 126 128 130 136 148 156 154 149 148 143 144 140 134 139 146 156 155 157 150 157 181 185 191 174 168 182 91 154 158 171 175 214 190 239 233 241 170 203 221 242 300 309 323 331 328 317 310 305 304 298 298 303 308 310 313 309 305
222 159 208 212 205 220 230 211 240 223 241 269 270 301 270 269 211 237 145 164 133 125 118 54 105 104 94 85 73 61 50 67 101 123 130 132 130 132 135 133 134 139 150 158 160 165 166 161 161 158 157 157 151 158 159 165 163 156 162 179 200 187 197 174 173 216 152 160 205 195 199 222 236 223 244 250 214 155 241 223 243 293 314 326 317 322 314 307 306 303 296 293 294 296 295 289 291
220 204 210 201 202 196 224 224 235 249 250 251 286 309 304 274 327 3 143 104 42 155 126 145 129 112 105 108 109 107 98 73 57 71 100 101 100 119 128 138 148 154 155 147 151 166 175 172 164 169 166 166 161 162 162 166 162 159 177 194 201 185 188 191 195 201 194 181 191 187 205 201 139 121 68 54 62 118 335 349 325 318 327 317 308 305 305 303 310 305 304 300 282 271 277 275 275
252 224 206 184 187 219 219 221 229 235 244 276 296 302 277 324 23 0 307 153 205 165 110 112 125 135 134 122 119 117 116 122 118 105 118 133 134 126 121 146 130 116 123 133 156 165 180 179 177 173 171 170 166 163 163 167 162 172 191 207 203 202 194 197 209 213 220 214 175 149 139 124 123 113 85 75 76 38 346 332 299 277 289 273 273 272 280 292 295 289 295 294 285 259 246 248 244
236 257 202 204 196 197 209 225 231 230 247 255 269 247 167 66 62 348 54 97 147 122 126 130 126 109 104 103 109 110 123 126 120 144 173 163 147 138 162 156 147 140 137 151 159 169 177 183 183 171 173 169 167 164 162 160 175 188 190 202 205 211 195 185 220 226 213 173 155 158 134 123 105 91 81 90 80 112 289 332 303 285 272 273 278 262 265 261 271 282 280 278 282 288 280 264 248
231 238 210 218 208 223 225 226 229 211 187 225 231 292 67 128 62 14 67 37 107 112 107 98 108 118 118 118 127 133 138 138 156 166 176 175 149 155 157 150 146 137 153 168 167 171 174 185 182 174 176 172 173 175 168 178 186 189 198 203 216 218 172 179 213 172 159 147 149 130 118 109 113 100 62 28 25 15 338 291 284 293 272 264 264 265 277 281 277 270 273 277 280 283 281 284 298
223 235 225 241 219 225 231 242 252 230 236 237 277 279 95 96 114 78 54 75 97 104 109 115 119 118 119 123 133 140 142 135 127 148 162 156 161 149 142 146 153 163 169 169 172 171 177 180 176 181 183 178 173 170 178 189 190 195 194 199 224 230 163 175 163 162 116 123 126 133 133 130 121 130 139 356 355 6 331 334 328 301 286 271 273 279 258 272 271 268 265 264 264 267 274 279 272
226 227 223 232 236 222 221 232 243 245 250 208 246 268 129 118 93 53 76 96 101 107 105 117 116 115 120 129 139 141 139 138 141 150 161 148 162 151 158 162 161 168 179 169 166 173 175 175 179 185 183 176 169 165 182 163 160 125 122 104 44 70 72 70 99 85 78 66 42 31 39 149 164 154 154 170 86 317 354 320 284 273 275 274 267 283 275 268 271 276 271 269 289 305 312 308 344
183 220 221 229 237 228 222 221 236 227 231 175 210 159 168 177 87 111 73 112 113 105 113 120 118 121 128 138 147 150 143 146 152 149 140 152 158 167 162 162 164 168 174 170 170 170 172 175 177 167 157 133 134 136 127 117 104 111 115 100 66 66 72 78 62 71 78 68 40 6 16 23 12 76 143 148 138 42 8 338 355 350 339 313 282 259 270 260 266 262 302 346 358 351 343 343 3
266 205 226 240 244 239 239 226 240 140 225 200 199 168 104 335 85 145 158 132 123 117 114 121 120 125 137 147 145 133 132 140 143 151 154 158 163 169 168 168 175 168 173 174 169 167 165 151 132 132 130 134 127 120 118 112 104 109 108 90 80 89 102 83 70 58 66 65 47 32 2 346 327 22 345 81 79 53 19 12 351 4 321 314 310 292 301 317 333 341 357 5 15 20 355 1 356
233 237 228 233 236 243 235 237 241 155 221 186 173 86 18 343 127 135 136 125 115 114 115 124 127 132 140 146 140 142 145 151 153 156 160 159 163 167 168 178 173 164 168 164 158 149 139 133 128 129 129 126 123 123 118 113 111 102 93 91 100 101 100 95 81 75 75 65 61 88 247 249 111 129 40 85 83 88 21 31 24 354 334 328 302 293 0 356 13 8 8 352 9 7 8 351 347
241 234 221 252 246 242 236 227 234 159 224 177 153 207 326 59 117 127 132 126 118 111 116 122 124 133 150 153 146 139 147 151 160 158 157 165 171 173 169 175 159 155 150 140 137 128 122 121 125 124 123 118 116 117 118 116 117 116 103 97 105 103 100 98 93 76 76 83 108 167 200 202 115 96 48 52 77 77 63 56 33 334 330 335 331 19 21 8 9 14 355 0 358 4 355 335 353
229 228 199 206 215 235 229 215 224 202 195 184 168 211 173 186 165 134 126 143 134 124 129 134 135 140 150 152 145 146 155 166 161 161 167 168 166 172 169 159 162 136 126 144 137 130 126 129 128 116 123 120 119 119 118 120 126 119 115 109 97 104 95 92 83 74 71 102 146 215 243 75 68 87 111 165 90 99 74 24 352 327 346 4 9 20 27 12 14 20 8 10 352 355 347 343 359
264 198 223 221 198 275 242 221 202 196 228 176 148 162 171 178 177 145 151 148 137 125 136 141 142 147 150 148 146 149 156 166 162 160 162 165 170 175 172 169 149 143 150 147 132 129 125 124 122 119 122 120 118 119 117 122 126 122 121 114 110 106 102 93 92 90 85 58 58 62 3 73 105 137 141 141 94 68 63 59 42 39 48 54 43 32 33 24 2 19 17 24 11 359 0 358 359
240 205 224 213 195 234 246 223 203 197 149 206 176 172 117 156 184 160 154 150 144 128 141 147 152 152 155 152 153 149 153 173 161 156 155 164 194 180 170 147 148 154 146 140 134 124 120 123 125 124 127 125 120 114 118 121 121 117 106 106 102 94 89 86 82 91 85 79 30 78 99 83 57 68 83 82 82 77 69 73 59 55 49 58 49 38 37 19 21 16 13 14 23 360 7 0 355
259 221 209 201 193 175 209 281 200 179 176 192 56 131 194 149 161 160 156 160 142 136 149 154 156 160 160 157 157 161 170 164 160 141 98 64 51 79 93 122 129 138 140 130 133 130 127 125 122 120 120 121 122 126 128 125 122 112 104 101 88 80 75 74 74 87 93 90 60 55 34 42 61 65 70 80 83 83 76 66 54 44 47 50 49 40 29 20 26 26 14 7 10 15 16 4 347
207 211 181 212 159 171 192 175 232 146 175 173 81 106 148 143 149 157 158 167 150 148 154 156 158 161 164 163 161 166 165 155 132 105 88 80 77 72 79 84 94 94 104 110 107 110 113 114 114 120 121 122 119 121 122 116 108 94 93 96 91 84 84 81 79 79 75 53 41 60 63 55 57 57 59 61 68 65 65 54 48 34 41 45 42 34 25 22 25 20 26 6 10 25 28 2 343
202 180 181 159 172 202 193 198 200 164 163 178 135 145 146 149 147 151 157 170 154 144 144 149 159 164 163 159 157 161 160 137 116 111 93 88 92 98 92 89 85 89 92 95 99 104 111 111 114 113 119 124 122 117 119 113 107 113 111 99 87 85 83 81 65 68 66 66 65 63 60 57 54 56 57 58 59 51 49 48 43 33 38 48 43 38 26 26 24 20 17 16 11 12 26 6 352
235 182 181 193 183 196 208 211 194 152 111 187 145 146 157 158 159 160 159 153 146 147 156 158 164 164 163 159 158 160 155 147 124 116 106 106 99 95 104 104 102 101 96 105 107 109 119 130 134 135 133 131 133 129 126 131 127 113 93 104 109 102 93 84 73 66 71 78 74 66 62 57 55 54 55 57 57 55 48 43 41 31 36 47 51 45 34 35 31 30 13 21 21 23 20 5 356
259 240 206 216 182 199 202 187 231 167 159 37 134 142 156 148 146 152 147 149 165 162 161 164 167 169 163 158 158 157 149 127 133 120 112 101 109 122 122 122 129 119 114 114 123 128 125 123 130 129 126 121 119 124 132 121 106 126 130 127 116 101 96 90 90 71 75 74 75 74 68 60 56 56 54 55 55 53 48 41 37 34 39 53 60 49 45 41 37 33 17 25 19 40 38 6 360
254 230 228 209 229 182 265 208 195 195 95 158 143 141 151 143 145 152 157 160 163 171 168 169 167 168 164 164 159 156 150 148 137 120 116 126 131 136 136 134 131 126 124 122 128 128 121 116 121 124 116 119 117 123 115 117 105 110 121 128 120 100 73 89 92 90 86 80 68 70 69 63 62 57 52 55 59 51 54 51 42 44 51 53 55 47 43 42 34 36 31 38 7 24 45 20 17
238 246 197 222 212 164 217 242 163 91 135 155 146 126 135 112 130 153 161 153 157 165 173 173 178 169 170 170 167 159 157 156 147 136 142 145 142 139 136 133 129 122 121 129 131 122 118 120 126 122 116 115 118 113 110 108 111 111 104 113 96 94 112 97 86 82 81 79 70 68 65 67 63 58 51 53 60 55 53 54 53 53 51 47 62 65 51 49 38 36 36 34 35 45 20 22 22
238 213 198 217 205 198 164 212 77 65 48 121 108 98 99 153 144 153 153 135 142 161 163 179 173 171 156 146 158 165 163 159 141 145 152 154 148 148 140 131 130 129 132 133 128 125 123 125 126 129 124 122 118 118 121 123 116 106 105 96 100 96 80 87 89 68 65 82 82 64 62 60 60 60 54 56 59 58 53 51 56 55 57 51 63 66 62 56 53 48 42 49 40 68 44 28 19
246 229 198 211 213 198 156 122 104 45 113 158 127 56 228 169 151 148 143 144 151 161 167 183 175 161 156 166 163 163 168 165 156 160 159 152 145 135 134 138 142 136 132 123 118 119 125 129 127 126 120 117 121 127 134 135 136 134 131 125 124 120 115 108 106 119 102 89 92 87 64 62 68 64 58 56 58 58 56 52 53 58 58 59 61 70 69 59 50 49 40 62 57 42 87 51 31
217 237 175 213 225 155 130 130 106 141 156 228 235 154 235 256 178 176 153 153 153 159 176 179 181 177 172 171 171 174 173 168 161 153 155 152 144 139 140 148 147 141 130 125 119 122 126 133 136 132 134 132 132 136 143 136 132 136 134 135 136 134 123 106 116 119 112 104 95 81 80 68 64 66 57 56 59 63 61 52 54 61 66 66 67 70 64 61 60 59 53 60 62 61 56 66 48
230 195 151 197 220 193 169 157 154 173 187 184 188 220 155 198 226 199 162 151 154 170 180 186 189 184 180 177 178 180 177 175 165 165 160 153 149 146 149 147 146 141 131 125 126 133 143 146 134 128 127 127 128 136 139 149 141 138 122 116 120 125 124 132 134 120 110 112 97 90 81 72 64 66 66 58 55 61 62 53 53 59 67 69 75 73 76 67 63 53 61 62 66 69 71 73 63
228 199 177 217 207 206 187 193 173 162 128 189 223 103 60 201 166 166 179 153 170 186 187 193 190 187 184 181 182 184 180 177 169 162 161 157 154 151 152 145 139 134 135 137 144 146 140 129 113 105 99 100 104 127 140 140 126 127 124 123 117 120 124 129 127 117 117 111 93 75 76 73 66 63 64 64 54 55 59 57 52 61 64 64 69 72 70 71 75 72 57 53 59 53 55 64 67
244 238 208 223 198 196 168 189 203 139 142 198 198 186 131 228 189 157 192 183 186 199 198 194 190 187 186 180 182 178 171 173 168 154 149 152 153 151 146 134 137 138 137 141 139 129 127 121 114 106 100 100 107 112 120 120 122 124 125 129 128 129 125 120 117 119 113 105 96 91 83 82 76 69 63 61 56 49 56 51 55 58 59 67 65 66 59 51 43 53 54 60 57 58 46 53 56
316 229 243 262 257 217 145 172 146 84 195 216 197 196 147 171 200 177 168 196 194 188 192 192 191 191 187 186 179 171 170 169 161 150 148 151 148 143 141 143 139 136 140 143 136 132 128 122 116 107 110 101 94 96 101 103 107 116 126 130 132 134 134 126 120 115 114 106 100 94 88 86 81 74 65 55 52 48 49 48 52 56 59 63 67 65 63 60 49 52 56 61 61 60 55 55 56
238 243 208 229 305 32 58 293 92 160 237 224 206 199 168 160 209 207 210 206 187 179 186 186 187 191 185 183 176 170 167 165 155 150 150 145 141 142 141 140 142 141 141 142 134 133 129 125 117 108 97 95 92 94 94 95 99 102 112 126 132 135 135 131 127 126 118 107 104 99 95 88 75 68 59 58 44 42 51 48 49 55 58 60 61 65 59 58 57 58 58 63 63 61 60 61 61
223 252 210 155 248 139 255 155 218 201 185 231 177 182 273 245 193 188 205 193 195 193 189 185 183 181 179 180 175 167 161 159 159 154 153 150 148 147 145 144 142 144 144 146 139 133 126 121 116 110 104 101 95 94 96 95 94 96 107 113 117 123 124 122 118 111 103 109 110 105 97 89 83 73 58 66 51 51 57 56 54 57 58 58 62 56 49 51 54 58 62 63 65 65 63 65 65
211 218 185 158 183 174 208 238 203 271 266 254 166 171 213 220 252 201 192 201 195 193 194 189 177 176 177 175 169 161 162 161 161 156 159 156 150 154 147 147 145 143 145 145 136 129 124 116 112 107 106 97 96 92 95 92 88 94 98 104 109 112 112 113 110 108 110 109 108 103 98 100 94 95 87 82 79 70 65 67 69 66 63 62 62 60 55 51 56 60 59 63 63 62 61 62 65
209 206 160 179 148 166 198 185 172 183 195 236 161 129 226 151 249 192 200 201 194 187 168 158 176 173 166 163 161 155 157 160 162 160 163 161 155 155 149 148 146 147 146 141 134 130 121 118 115 112 105 101 100 102 101 100 99 99 98 99 105 110 113 109 102 105 114 113 107 102 97 95 98 99 101 99 78 72 66 63 63 61 56 59 58 58 54 53 56 60 58 61 58 57 58 61 59
216 182 103 141 215 138 204 197 154 191 155 89 159 171 154 169 293 262 185 102 116 141 143 142 152 158 162 167 166 162 162 164 166 160 160 161 158 153 143 142 147 150 147 142 139 134 126 124 119 112 114 113 109 106 102 106 103 102 99 100 106 113 113 103 97 100 102 108 109 106 102 99 100 101 95 84 69 74 69 65 60 57 55 53 53 55 56 55 55 61 58 60 61 56 64 63 67
203 156 207 214 168 123 102 54 268 96 88 204 186 67 307 284 3 14 125 130 141 143 143 149 153 162 168 173 169 165 166 167 165 162 160 159 158 153 145 146 150 150 149 147 144 138 133 131 122 115 111 107 107 107 109 106 109 103 103 105 109 109 108 108 111 107 106 103 105 104 108 107 98 93 88 76 72 65 68 66 61 54 50 48 47 43 48 54 59 61 63 63 64 61 68 70 72
146 193 215 232 164 136 139 183 307 79 147 223 121 150 213 86 260 6 117 140 154 155 159 156 157 162 173 177 172 169 169 168 164 159 157 159 160 154 146 150 154 153 147 142 138 133 132 130 128 123 120 116 115 113 110 113 113 111 112 109 107 107 105 107 112 113 111 108 101 100 101 100 95 90 88 85 76 70 61 61 61 57 52 50 47 41 42 41 51 62 67 69 73 69 65 68 72
186 205 166 180 202 232 301 113 190 139 176 189 269 180 174 176 166 141 165 160 174 167 157 155 167 175 178 177 171 165 161 160 159 158 159 163 164 158 147 153 153 150 145 140 133 132 128 124 124 122 123 124 125 118 117 117 119 120 122 120 115 107 103 106 107 109 112 107 105 105 102 99 86 87 88 81 75 68 66 58 59 57 52 50 45 40 37 39 41 54 59 66 59 68 73 74 70
218 85 169 175 118 167 144 203 174 126 229 109 253 10 229 210 176 173 177 179 177 168 167 177 176 180 177 174 168 164 163 164 163 161 164 163 162 156 149 154 155 153 147 141 137 134 132 131 126 121 117 120 121 123 127 126 126 122 123 116 110 105 109 112 114 113 107 106 108 106 104 97 101 94 90 85 76 74 67 64 57 57 54 49 47 40 37 39 44 43 54 62 57 73 80 82 78
217 170 228 198 194 220 131 105 144 164 170 174 142 259 278 249 191 173 179 180 177 174 180 177 179 182 180 172 167 166 166 165 165 163 162 162 159 151 148 152 151 149 143 141 142 141 138 134 132 133 132 131 129 136 133 139 135 131 126 122 117 115 114 114 111 109 107 107 108 106 105 108 94 89 91 81 79 73 69 67 60 55 54 51 49 42 34 41 44 38 37 66 66 75 86 90 90
164 164 190 175 158 148 174 248 8 109 107 186 135 223 265 262 176 186 179 182 178 185 175 176 179 178 176 172 169 167 167 166 163 161 159 161 157 150 149 151 150 149 148 145 143 139 141 142 142 138 134 140 141 148 150 151 138 127 118 115 116 117 115 110 110 110 108 107 106 104 106 96 94 92 89 85 80 74 70 64 64 56 56 55 53 48 40 46 43 37 27 43 80 84 91 97 95